Zurück zum Katalog

CBERS 2B

AktivWissenschaftSSO
NORAD 32062·PAYLOAD·🇧🇷 Brazil🇨🇳 China

Gestartet Sep 19, 2007 von Taiyuan Satellite Launch Center

Loading…

Nächste Überflüge (nächste 24 Stunden)

TLE

AktuellSource: Space-Track

Epoche: Sep 13, 2026, 19:28 UTC

1 32062U 07042A   26256.81137431  .00000188  00000-0  70613-4 0  9993
2 32062  98.3986 199.9389 0032176  68.6932 345.7249 14.41511705997456

Verfolge CBERS 2B in Echtzeit mit AllMySat

Download on the App Store